{"data":{"norad_id":68034,"intl_designator":"2026-040V","name":"STARLINK-36939","alt_names":[],"object_type":"PAYLOAD","status":"ACTIVE","operator":null,"country":"US","launch_date":"2026-03-01","launch_site_code":"AFWTR","launch_vehicle":null,"mission":null,"orbit_class":"UNKNOWN","rcs_meters":null,"size_class":null,"mass_kg":null,"dimensions":null,"purposes":["comms"],"wikipedia_slug":null,"has_3d_model":false,"image_url":null,"decayed_at":null,"tle_current":{"epoch":"2026-09-20T03:05:32.322048Z","epoch_age_seconds":91725,"freshness":"FRESH","line1":"1 68034U 26040V   26263.12884632  .00017744  00000+0  55044-3 0  9999","line2":"2 68034  97.2846 210.5119 0002089  97.4214 262.7266 15.33455916 31269","mean_motion":15.33455916,"eccentricity":0.0002089,"inclination_deg":97.2846,"raan_deg":210.5119,"arg_perigee_deg":97.4214,"mean_anomaly_deg":262.7266,"bstar":0.00055044,"rev_number":3126,"period_min":93.905536179757,"perigee_km":464.08105833109,"apogee_km":466.94033433862,"semimajor_km":6843.6476963349,"source":"CELESTRAK","updated_at":"2026-09-20T09:00:43.745397Z"}}}